INTELSAT 33E DEB, 61997

Orbit data source: Space-Track

INTELSAT 33E DEB, 61997 is space debris in GEO originally from a launch on Wed, 24 Aug 2016 UTC launched from the French Guiana (FRGUI). Debris objects in space refer to the collection of defunct objects orbiting the Earth. Examples of debris include non-operational satellites, rocket bodies, and fragments generated from explosions, collisions, or faulty payload assembly.

Loading next visibility...
Identifier
61997, 2016-053P
Orbit
GEO
Last TLE update
2 days ago
Origin
Manufacturer
Boeing/ES
Mission
Spacecraft
Bus & Motor
Unknown
Mass
Unknown
Launch date (UTC)
2016-08-24 (9 years ago)
Launch vehicle
Unknown
Launch site
French Guiana (FRGUI)
Object type
Payload
Rocket body
Debris
Shape & HBR
Unknown
Radar Cross Section
RCS unknown

Expand to show TLE details & history

TLE from 2 days ago
0 INTELSAT 33E DEB
1 61997U 16053P   25198.37818144 -.00000213  00000-0  00000-0 0  9995
2 61997   0.7137  92.8654 0090524 258.0458   8.9183  1.01612068  2767
Epoch: 2025-07-17T09:04Z
TLE epoch observation values (Epoch: 2025-07-17T09:04:34.876Z)
Latitude
-0.72675°
Longitude
-71.59032°
Altitude
35,041.731 km
Speed
3.116 km/s
True Right ascension
23h 59m 59s
True Declination
0° 43' 34"
Sunlit
Object was in daylight at epoch
Visualization orbit readout
Latitude
0.5514°
Longitude
151.08623°
Altitude
35,645.249 km
Speed
3.071 km/s
Apparent Right ascension
15h 09m 36s
Apparent Declination
-5° 27' 10"
Sunlit
Object is in daylight
Visualization observer readout
Local Sidereal Time
12:09:43
Azimuth
126.719° SE
Elevation
28.632°
Doppler factor
1
Orbital elements
Apogee altitude
35,794.418 km
Perigee altitude
35,037.742 km
Semi-major axis
41,794.217 km
Eccentricity
0.00905
Inclination
0.7137°
RAAN
92.8654°
Arg. of periapsis
258.0458°
True anomaly
9.08093°
Mean anomaly
8.9183°
Eccentric anomaly
8.99943°
Mean motion
0.25402 °/min
Orbital period
1,417.21 mins
BSTAR
0
Loading maneuver chart data...
Loading SW <> Apogee altitude chart data...
Loading historical data...
Loading historical data...
Loading historical data...
Loading historical data...
Loading historical data...
Loading historical data...
Loading historical data...
|